Home > Weather > Butare > Past weeks

Flag for Rwanda Weather for the Past 2 Weeks in Butare, Rwanda

Now
66 °F

Passing clouds.


Feels Like: 66 °F
Forecast: 58 / 73 °F
Wind: 2 mph from Southeast

Location: Kigali Airport

Current Time: May 7, 2016 at 2:42:20 AM

Latest Report: May 7, 2016 at 2:00 AM


Visibility: N/A

Pressure: N/A

Humidity: 100%

Dew Point: 66 °F

Location of ButareLocation

Historic Weather in Butare — Graph

°F

Butare Temperature Yesterday

Maximum temperature yesterday: 77 °F (at 3:00 PM)
Minimum temperature yesterday: 64 °F (at 6:30 AM)
Average temperature yesterday: 72 °F

High & Low Weather Summary for the Past Weeks

 TemperatureHumidityPressure
High84 °F (Apr 22, 2:00 PM)100% (Apr 23, 3:30 AM)30.21 "Hg (Apr 23, 3:30 AM)
Low61 °F (May 2, 7:00 AM)54% (Apr 22, 1:00 PM)29.98 "Hg (Apr 23, 3:30 PM)
Average71 °F81%30.11 "Hg
* Reported Apr 22 3:30 AM — May 7 1:00 AM, Butare, Weather by CustomWeather, © 2016

Note: Actual official high and low records may vary slightly from our data, if they occured in-between our weather recording intervals... More about our weather records

Advertising

Butare Weather History for the Previous 24 Hours

Scroll right to see more
 ConditionsComfort  
Time TempWeatherWind HumidityBarometerVisibility
1:00 AM
Sat, May 7
68 °FPassing clouds.2 mph88%30.15 "HgN/A
12:00 AM68 °FPassing clouds.3 mph88%30.18 "HgN/A
11:30 PM
Fri, May 6
68 °FPartly cloudy.2 mph88%30.18 "HgN/A
11:00 PM68 °FPassing clouds.3 mph88%30.18 "HgN/A
7:30 PM72 °FPassing clouds.6 mph78%30.12 "HgN/A
7:00 PM72 °FPassing clouds.7 mph78%30.09 "HgN/A
6:30 PM72 °FPassing clouds.5 mph78%30.09 "HgN/A
5:30 PM75 °FScattered clouds.5 mph69%30.07 "HgN/A
4:00 PM77 °FScattered clouds.8 mph61%30.07 "HgN/A
3:30 PM77 °FScattered clouds.5 mph61%30.07 "HgN/A
3:00 PM77 °FScattered clouds.6 mph61%30.07 "HgN/A
1:30 PM75 °FScattered clouds.7 mph69%30.12 "HgN/A
12:30 PM75 °FPartly sunny.8 mph65%30.15 "HgN/A
12:00 PM75 °FPartly sunny.9 mph69%30.18 "HgN/A
11:00 AM73 °FBroken clouds.12 mph78%30.21 "HgN/A
10:30 AM73 °FBroken clouds.12 mph78%30.21 "HgN/A
10:00 AM73 °FPartly sunny.10 mph78%30.21 "HgN/A
9:00 AM73 °FScattered clouds.3 mph74%30.21 "HgN/A
8:30 AM73 °FScattered clouds.2 mph78%30.21 "HgN/A
8:00 AM72 °FScattered clouds.3 mph83%30.21 "HgN/A
7:30 AM68 °FScattered clouds.2 mph88%30.18 "HgN/A
7:00 AM66 °FScattered clouds.3 mph88%30.18 "HgN/A
6:30 AM64 °FScattered clouds.2 mph94%30.15 "HgN/A
Weather by CustomWeather, © 2016

See weather overviewHow to use our weather pages